SWR21W LSZH-EBBR

Flight info

Callsign SWR21W
Flight time N/A
Altitude 30000
Route VEBIT T10 TORPA DCT EDOPI DCT GIVOR DCT SORAL DCT IBERA DCT DIK Y37 BATTY
Aircraft A319/M-SDE3FGHIRWY/LB1

Departure

Time 2026-05-07 18:06
Airport Zürich Airport (LSZH)

Arrival

Time N/A
Airport Brussels Airport (EBBR)
Time Latitude Longitude Altitude Speed Heading
2026-05-07 17:39 47.45349 8.55754 1397 ft 0 kts
2026-05-07 17:55 47.45322 8.55750 1402 ft 4 kts
2026-05-07 17:56 47.45292 8.55744 1407 ft 4 kts
2026-05-07 17:56 47.45276 8.55742 1401 ft 1 kts 343°
2026-05-07 17:56 47.45269 8.55746 1403 ft 1 kts 310°
2026-05-07 17:56 47.45264 8.55755 1401 ft 1 kts 289°
2026-05-07 17:57 47.45262 8.55766 1408 ft 1 kts 284°
2026-05-07 17:57 47.45261 8.55769 1406 ft 0 kts 283°
2026-05-07 17:59 47.45262 8.55767 1406 ft 2 kts 283°
2026-05-07 17:59 47.45266 8.55706 1399 ft 10 kts 275°
2026-05-07 17:59 47.45284 8.55576 1400 ft 15 kts 319°
2026-05-07 17:59 47.45400 8.55491 1401 ft 20 kts 335°
2026-05-07 18:00 47.45516 8.55409 1399 ft 15 kts 335°
2026-05-07 18:00 47.45613 8.55344 1397 ft 16 kts 335°
2026-05-07 18:00 47.45702 8.55300 1397 ft 3 kts 342°
2026-05-07 18:03 47.45731 8.55284 1402 ft 9 kts 336°
2026-05-07 18:03 47.45812 8.55225 1397 ft 16 kts 334°
2026-05-07 18:03 47.45887 8.55313 1393 ft 21 kts 95°
2026-05-07 18:03 47.45875 8.55553 1396 ft 25 kts 96°
2026-05-07 18:04 47.45859 8.55749 1401 ft 13 kts 95°
2026-05-07 18:04 47.45852 8.55884 1399 ft 14 kts 95°
2026-05-07 18:04 47.45840 8.56020 1401 ft 13 kts 98°
2026-05-07 18:04 47.45829 8.56161 1406 ft 15 kts 95°
2026-05-07 18:05 47.45871 8.56292 1407 ft 17 kts 21°
2026-05-07 18:05 47.45998 8.56317 1402 ft 21 kts
2026-05-07 18:05 47.46160 8.56343 1398 ft 25 kts 358°
2026-05-07 18:05 47.46342 8.56155 1398 ft 59 kts 317°
2026-05-07 18:06 47.46834 8.55484 1397 ft 130 kts 317°
2026-05-07 18:06 47.47599 8.54443 1718 ft 152 kts 317°
2026-05-07 18:06 47.48341 8.53424 2563 ft 142 kts 318°
2026-05-07 18:06 47.49119 8.52360 2963 ft 165 kts 319°
2026-05-07 18:07 47.50133 8.51350 3351 ft 188 kts 332°
2026-05-07 18:07 47.51342 8.50384 3744 ft 212 kts 332°
2026-05-07 18:07 47.52554 8.49075 4502 ft 220 kts 312°
2026-05-07 18:07 47.53342 8.47101 5144 ft 226 kts 286°
2026-05-07 18:08 47.53496 8.44798 6105 ft 227 kts 263°
2026-05-07 18:08 47.53026 8.42577 7051 ft 227 kts 244°
2026-05-07 18:08 47.52386 8.40711 7881 ft 228 kts 237°
2026-05-07 18:08 47.51336 8.38879 8564 ft 244 kts 227°
2026-05-07 18:09 47.50121 8.36956 9089 ft 266 kts 227°
2026-05-07 18:09 47.48830 8.34932 9939 ft 274 kts 227°
2026-05-07 18:09 47.47506 8.32863 10511 ft 291 kts 227°
2026-05-07 18:09 47.46057 8.30595 10848 ft 316 kts 227°
2026-05-07 18:10 47.44499 8.28147 11168 ft 337 kts 227°
2026-05-07 18:10 47.42870 8.25587 11825 ft 346 kts 227°
2026-05-07 18:10 47.41211 8.22983 12610 ft 350 kts 227°
2026-05-07 18:10 47.39532 8.20349 13431 ft 354 kts 227°
2026-05-07 18:11 47.37833 8.17685 14166 ft 359 kts 227°
2026-05-07 18:11 47.36136 8.15030 14852 ft 362 kts 227°
2026-05-07 18:11 47.34396 8.12313 15550 ft 366 kts 227°
2026-05-07 18:11 47.32643 8.09561 16231 ft 370 kts 229°
2026-05-07 18:12 47.31241 8.06371 16883 ft 374 kts 246°
2026-05-07 18:12 47.30603 8.02641 17544 ft 379 kts 265°
2026-05-07 18:12 47.30815 7.98758 18224 ft 384 kts 280°
2026-05-07 18:12 47.31357 7.94882 18847 ft 388 kts 283°
2026-05-07 18:13 47.32375 7.91182 19432 ft 394 kts 299°
2026-05-07 18:13 47.33874 7.87825 20026 ft 398 kts 302°
2026-05-07 18:13 47.35405 7.84479 20611 ft 400 kts 302°
2026-05-07 18:13 47.36970 7.81067 21201 ft 403 kts 302°
2026-05-07 18:14 47.38545 7.77635 21743 ft 406 kts 302°
2026-05-07 18:14 47.40131 7.74173 22319 ft 408 kts 302°
2026-05-07 18:14 47.41724 7.70685 22854 ft 411 kts 302°
2026-05-07 18:14 47.43325 7.67172 23393 ft 413 kts 302°
2026-05-07 18:15 47.44934 7.63633 23855 ft 416 kts 302°
2026-05-07 18:15 47.46551 7.60069 24307 ft 419 kts 302°
2026-05-07 18:15 47.48150 7.56536 24745 ft 421 kts 302°
2026-05-07 18:15 47.49777 7.52931 25184 ft 423 kts 302°
2026-05-07 18:16 47.51411 7.49307 25616 ft 425 kts 302°
2026-05-07 18:16 47.53053 7.45661 26044 ft 427 kts 302°
2026-05-07 18:16 47.54704 7.41996 26465 ft 429 kts 302°
2026-05-07 18:16 47.56364 7.38315 26870 ft 431 kts 302°
2026-05-07 18:17 47.58030 7.34617 27274 ft 433 kts 302°
2026-05-07 18:17 47.59705 7.30898 27656 ft 435 kts 302°
2026-05-07 18:17 47.61364 7.27208 28027 ft 437 kts 302°
2026-05-07 18:17 47.63051 7.23443 28398 ft 439 kts 302°
2026-05-07 18:18 47.64743 7.19663 28755 ft 442 kts 302°
2026-05-07 18:18 47.66444 7.15855 29110 ft 444 kts 302°
2026-05-07 18:18 47.68153 7.12029 29516 ft 444 kts 302°
2026-05-07 18:18 47.69856 7.08210 29952 ft 443 kts 302°
2026-05-07 18:19 47.71550 7.04400 30035 ft 440 kts 302°
2026-05-07 18:19 47.74879 6.96910 30040 ft 436 kts 302°
2026-05-07 18:20 47.78215 6.89388 30042 ft 436 kts 302°
2026-05-07 18:20 47.81548 6.81848 30050 ft 436 kts 302°
2026-05-07 18:21 47.84879 6.74294 30049 ft 437 kts 301°
2026-05-07 18:21 47.88195 6.66725 30040 ft 437 kts 301°
2026-05-07 18:22 47.92249 6.60067 30040 ft 442 kts 321°
2026-05-07 18:22 47.97732 6.55883 30034 ft 448 kts 341°
2026-05-07 18:23 48.03886 6.54164 30051 ft 451 kts 348°
2026-05-07 18:23 48.10079 6.52690 30053 ft 451 kts 348°
2026-05-07 18:24 48.16232 6.51209 30053 ft 451 kts 348°
2026-05-07 18:24 48.22431 6.49706 30048 ft 451 kts 348°
2026-05-07 18:25 48.28630 6.48198 30058 ft 451 kts 348°
2026-05-07 18:25 48.34827 6.46702 30049 ft 451 kts 348°
2026-05-07 18:26 48.41022 6.45207 30049 ft 451 kts 348°
2026-05-07 18:26 48.47164 6.43706 30043 ft 450 kts 348°
2026-05-07 18:27 48.53355 6.42193 30046 ft 451 kts 348°
2026-05-07 18:27 48.59551 6.40685 30046 ft 451 kts 348°
2026-05-07 18:28 48.65766 6.39357 30044 ft 453 kts 355°
2026-05-07 18:28 48.72036 6.39771 30050 ft 455 kts
2026-05-07 18:29 48.78347 6.40420 30046 ft 454 kts
2026-05-07 18:29 48.84658 6.41044 30047 ft 454 kts
2026-05-07 18:30 48.90957 6.41672 30054 ft 455 kts
2026-05-07 18:30 48.97229 6.42307 30053 ft 454 kts
2026-05-07 18:30 49.00358 6.41930 30058 ft 450 kts 347°
2026-05-07 18:31 49.03421 6.40932 30058 ft 450 kts 346°
2026-05-07 18:31 49.09536 6.38901 30059 ft 450 kts 346°
2026-05-07 18:32 49.15646 6.36848 30053 ft 449 kts 345°
2026-05-07 18:32 49.21707 6.34815 30051 ft 449 kts 346°
2026-05-07 18:33 49.27810 6.32783 30047 ft 449 kts 346°
2026-05-07 18:33 49.33916 6.30737 30049 ft 449 kts 346°
2026-05-07 18:34 49.40028 6.28670 30048 ft 450 kts 346°
2026-05-07 18:34 49.46137 6.26603 30048 ft 449 kts 346°
2026-05-07 18:35 49.52241 6.24536 30047 ft 449 kts 346°
2026-05-07 18:35 49.58305 6.22484 30043 ft 449 kts 346°
2026-05-07 18:36 49.64409 6.20416 30038 ft 449 kts 345°
2026-05-07 18:36 49.70512 6.18334 30037 ft 449 kts 345°
2026-05-07 18:37 49.76607 6.16255 30036 ft 449 kts 345°
2026-05-07 18:37 49.82713 6.14162 30039 ft 449 kts 345°
2026-05-07 18:38 49.88754 6.12067 29009 ft 447 kts 345°
2026-05-07 18:38 49.91779 6.11002 28194 ft 443 kts 345°
2026-05-07 18:38 49.94774 6.09944 27436 ft 439 kts 345°
2026-05-07 18:38 49.97739 6.08897 26721 ft 435 kts 345°
2026-05-07 18:39 50.00671 6.07860 26034 ft 430 kts 345°
2026-05-07 18:39 50.03579 6.06835 25382 ft 427 kts 345°
2026-05-07 18:39 50.06471 6.05819 25119 ft 426 kts 345°
2026-05-07 18:39 50.09361 6.04803 25050 ft 426 kts 345°
2026-05-07 18:40 50.12260 6.03779 25067 ft 427 kts 345°
2026-05-07 18:40 50.15152 6.02751 25068 ft 427 kts 345°
2026-05-07 18:40 50.18010 6.01733 24956 ft 424 kts 345°
2026-05-07 18:40 50.20799 6.00368 24154 ft 420 kts 333°
2026-05-07 18:41 50.23240 5.97888 23275 ft 418 kts 319°
2026-05-07 18:41 50.25462 5.94972 22439 ft 416 kts 317°
2026-05-07 18:41 50.27654 5.92044 21709 ft 413 kts 318°
2026-05-07 18:41 50.29847 5.89187 21028 ft 409 kts 319°
2026-05-07 18:42 50.32037 5.86377 20379 ft 405 kts 319°
2026-05-07 18:42 50.34210 5.83602 19766 ft 402 kts 319°
2026-05-07 18:42 50.36367 5.80848 19198 ft 399 kts 319°
2026-05-07 18:42 50.38511 5.78096 18717 ft 397 kts 319°
2026-05-07 18:43 50.40636 5.75350 18229 ft 395 kts 319°
2026-05-07 18:43 50.42718 5.72647 17691 ft 392 kts 319°
2026-05-07 18:43 50.44808 5.69926 17130 ft 388 kts 319°
2026-05-07 18:43 50.46876 5.67227 16556 ft 385 kts 319°
2026-05-07 18:44 50.48930 5.64545 16001 ft 383 kts 319°
2026-05-07 18:44 50.50968 5.61883 15418 ft 380 kts 319°
2026-05-07 18:44 50.52991 5.59238 14846 ft 377 kts 319°
2026-05-07 18:44 50.55004 5.56609 14270 ft 375 kts 319°
2026-05-07 18:45 50.57001 5.54000 13671 ft 372 kts 319°
2026-05-07 18:45 50.58982 5.51407 13038 ft 369 kts 319°
2026-05-07 18:45 50.60919 5.48863 12416 ft 366 kts 319°
2026-05-07 18:45 50.62860 5.46307 11782 ft 362 kts 319°
2026-05-07 18:46 50.64783 5.43775 11155 ft 359 kts 319°
2026-05-07 18:46 50.66692 5.41259 10530 ft 356 kts 319°
2026-05-07 18:46 50.68580 5.38773 9891 ft 353 kts 319°
2026-05-07 18:46 50.70454 5.36302 9210 ft 349 kts 320°
2026-05-07 18:47 50.72308 5.33857 8541 ft 346 kts 320°
2026-05-07 18:47 50.74144 5.31432 7884 ft 342 kts 320°
2026-05-07 18:47 50.75958 5.29028 7239 ft 339 kts 320°
2026-05-07 18:47 50.77753 5.26646 6628 ft 336 kts 320°
2026-05-07 18:48 50.79540 5.24276 6372 ft 336 kts 320°
2026-05-07 18:48 50.81306 5.21932 6145 ft 335 kts 320°
2026-05-07 18:48 50.83090 5.19560 6071 ft 335 kts 320°
2026-05-07 18:48 50.84736 5.16966 6059 ft 331 kts 306°
2026-05-07 18:49 50.85851 5.13940 6056 ft 307 kts 298°
2026-05-07 18:49 50.86827 5.11076 6055 ft 285 kts 298°
2026-05-07 18:49 50.87746 5.08387 6053 ft 274 kts 298°
2026-05-07 18:49 50.88647 5.05746 6051 ft 272 kts 298°
2026-05-07 18:50 50.89546 5.03114 6053 ft 272 kts 298°
2026-05-07 18:50 50.90448 5.00477 6054 ft 272 kts 298°
2026-05-07 18:50 50.91347 4.97844 6056 ft 272 kts 298°
2026-05-07 18:50 50.92247 4.95208 6051 ft 272 kts 298°
2026-05-07 18:51 50.93136 4.92608 5976 ft 270 kts 298°
2026-05-07 18:51 50.94038 4.89963 5506 ft 269 kts 298°
2026-05-07 18:51 50.94912 4.87393 5094 ft 267 kts 298°
2026-05-07 18:51 50.95768 4.84873 4968 ft 252 kts 298°
2026-05-07 18:52 50.96570 4.82505 4685 ft 238 kts 298°
2026-05-07 18:52 50.97348 4.80208 4207 ft 234 kts 298°
2026-05-07 18:52 50.98031 4.77864 3841 ft 234 kts 285°
2026-05-07 18:52 50.98282 4.75326 3560 ft 233 kts 278°
2026-05-07 18:53 50.98357 4.72776 3278 ft 231 kts 258°
2026-05-07 18:53 50.97882 4.71016 3064 ft 0 kts 234°